sat.trackr.live / text

‹ back to catalog

STARLINK-6278

NORAD 56412 · 2023-061AQ

PAYLOAD ACTIVE UNKNOWN

§ Identity

Operator
Country
US
Launch date
2023-05-04
Launch site
AFETR
Launch vehicle
Mass (kg)
RCS (m²)

Purposes: comms

External: N2YO · Heavens-Above · Gunter

§ Orbital elements

Epoch: 2026-09-20T10:52:37.205760Z

Period
94.27 min
Inclination
43.0053°
Eccentricity
0.0001504
Mean motion
15.27576243 rev/d
Perigee alt
482.0 km
Apogee alt
484.1 km
Semi-major
6,861.2 km
B*
8.5694e-6
RAAN
166.9024°
Arg perigee
268.5758°
Mean anomaly
91.4922°
Rev number
18,666

§ Raw data

STARLINK-62781 56412U 23061AQ  26263.45320840 -.00000026  00000+0  85694-5 0  99902 56412  43.0053 166.9024 0001504 268.5758  91.4922 15.27576243186660

JSON: /api/v1/satellites/56412 · /tle

For live sub-satellite position, see the globe view (requires WebGL).

§ Visibility from observer

Set your observer location to see the next 7 days of passes ≥ 10°. The values pass through the URL so the page stays shareable.

No JS? Fill the form by hand. The geolocation button needs JavaScript.